Terminal Aerodrome Forecast
Issued by NWS Rapid City, SD

Home | Current Version | Previous Version | Text Only | Print | Product List | Glossary Off
Versions: 1 2 3 4 5 6 7 8 9 10 11 12 13

000
FTUS43 KUNR 031120
TAFRAP
TAF
KRAP 031120Z 0312/0412 14011KT P6SM SCT150
     FM032300 11010KT P6SM BKN080 BKN100
      TEMPO 0402/0406 P6SM -TSRA BKN050CB=

USA.gov is the U.S. government's official web portal to all federal, state and local government web resources and services.